[[{"header":{"parameterUnit":"m.s-1","parameterCategory":1,"la1":30.2991,"la2":30.254,"lo1":-89.0895,"lo2":-89.0444,"dy":0.0017,"dx":0.0017,"nx":28,"ny":28,"refTime":"2025-08-21T03:00:00:Z","depth":0,"parameterNumber":2,"parameterNumberName":"U-component_of_WINDS"},"data":[0,0,0,0,0,0,0,0,0,0,0,0,0,0,0,0,0,0,0,0,0,0,0,0,0,0,0,0,0,0,0,0,0,0,0,0,0,0,0,0,0,0,0,0,0,0,0,0,0,0,0,0,0,0,0,0,0,0,1.0847,1.0848,0,1.0928,1.0929,1.093,1.0957,1.0957,1.0956,1.0956,1.1038,1.1041,1.1043,0,0,0,0,0,0,0,0,0,0,0,0,0,1.0713,1.0716,1.0847,1.0848,1.0849,1.0928,1.0929,1.0931,1.0957,1.0957,1.0956,1.0956,1.1037,1.104,1.1043,0,0,0,0,0,0,0,0,0,0,0,0,0,1.0781,1.0717,1.0847,1.0872,1.0875,1.0928,1.0929,1.0931,1.0957,1.0957,1.0956,1.0956,1.1036,1.104,1.1044,1.1077,0,0,1.1055,1.1057,0,0,0,0,0,0,0,0,1.0777,1.0786,1.0867,1.087,1.0874,1.0932,1.0912,1.098,1.0957,1.0926,1.0956,1.0955,1.1003,1.101,1.1026,1.1081,1.1085,1.1055,1.1058,1.1059,1.106,0,0,0,0,0,0,0,1.0772,1.0782,1.0879,1.0869,1.0873,1.0879,1.0888,1.0925,1.0966,1.0929,1.0931,1.094,1.1005,1.1022,1.1028,1.1086,1.1055,1.1059,1.1061,1.1062,1.1171,1.1172,0,0,0,0,0,0,1.0764,1.0778,1.0877,1.0882,1.0823,1.0881,1.0892,1.0914,1.0966,1.0974,1.094,1.0941,1.1016,1.1024,1.1031,1.1073,1.1059,1.1063,1.1065,1.1171,1.1171,1.1172,0,0,0,0,0,0,1.0761,1.0772,1.0873,1.0831,1.0844,1.0884,1.0909,1.0916,1.0933,1.0975,1.0982,1.0951,1.1016,1.1026,1.1065,1.1076,1.1065,1.1068,1.117,1.1171,1.1172,1.1158,0,0,0,0,0,0,1.0757,1.0771,1.0785,1.0831,1.0846,1.0907,1.091,1.0918,1.094,1.0941,1.0987,1.0994,1.1016,1.106,1.1069,1.1081,1.1071,1.1169,1.117,1.1171,1.1157,1.1158,1.1158,0,0,0,0,0,1.0752,1.0777,1.0785,1.0797,1.0864,1.0908,1.0916,1.0942,1.0941,1.0954,1.0981,1.0992,1.1074,1.1063,1.1074,1.1088,1.1169,1.117,1.1171,1.1157,1.1158,1.1158,0,0,0,0,0,0,1.0731,1.0784,1.0793,1.0835,1.0866,1.0912,1.093,1.0942,1.0975,1.0975,1.1005,1.1015,1.1052,1.1074,1.1062,1.1122,1.1122,1.1125,1.1107,1.1108,1.1109,1.1102,1.1074,0,0,0,0,0,1.0732,1.0763,1.0807,1.0839,1.0855,1.089,1.0909,1.0926,1.0961,1.0974,1.1004,1.1036,1.1069,1.109,1.1122,1.1161,1.117,1.1175,1.1176,1.1176,1.1179,1.1199,1.1202,1.1177,1.1177,1.1177,0,0,1.0733,1.0765,1.0783,1.0836,1.0863,1.0893,1.0901,1.0934,1.0956,1.0979,1.1018,1.1041,1.1079,1.1117,1.1136,1.1137,1.1188,1.1178,1.1178,1.118,1.1201,1.1204,1.1206,1.1178,1.1178,1.1177,0,0,1.075,1.0778,1.0808,1.0834,1.0874,1.0897,1.0904,1.0948,1.0964,1.1004,1.1021,1.1048,1.1104,1.113,1.1151,1.1177,1.1188,1.1187,1.119,1.121,1.1212,1.1213,1.1222,1.1225,1.1189,1.1189,1.1189,0,1.0746,1.0794,1.0821,1.0853,1.0875,1.0897,1.0926,1.0951,1.0999,1.1014,1.1014,1.1084,1.1111,1.1156,1.1162,1.1178,1.1186,1.1181,1.1209,1.1211,1.1214,1.1222,1.1225,1.1189,1.1189,1.1189,1.1189,0,1.0787,1.0819,1.0838,1.0884,1.0909,1.0939,1.097,1.0992,1.1006,1.1029,1.1068,1.1102,1.1141,1.1153,1.1167,1.1199,1.1198,1.1203,1.1203,1.1215,1.1223,1.1227,1.1188,1.1188,1.1188,1.1188,0,0,1.0794,1.0854,1.0861,1.0881,1.0927,1.0952,1.0983,1.1022,1.1039,1.1071,1.1097,1.1144,1.1149,1.1172,1.119,1.1207,1.1225,1.121,1.1212,1.1211,1.1261,1.1256,1.1259,1.1232,1.1233,1.1234,1.1257,0,1.0816,1.0873,1.0898,1.0943,1.0973,1.0993,1.102,1.105,1.1072,1.11,1.1124,1.1156,1.116,1.1174,1.1193,1.1219,1.1235,1.1217,1.1256,1.1257,1.1246,1.1264,1.1259,1.128,1.1261,1.1261,1.1262,0,1.0851,1.0883,1.0931,1.0972,1.0985,1.1009,1.1045,1.1072,1.1107,1.1121,1.1147,1.1163,1.1196,1.1193,1.1238,1.1225,1.1243,1.1258,1.1259,1.1263,1.126,1.1268,1.1287,1.129,1.1267,1.1267,1.1266,0,1.085,1.0906,1.0941,1.0958,1.1007,1.1023,1.1044,1.1078,1.1099,1.1131,1.1145,1.118,1.1199,1.1226,1.1251,1.1247,1.1293,1.1293,1.1305,1.1304,1.1314,1.1313,1.1335,1.1326,1.1325,1.1325,1.1325,0,1.0872,1.0901,1.0941,1.0963,1.0995,1.1023,1.1053,1.1076,1.1106,1.1132,1.1152,1.1176,1.1208,1.1236,1.1256,1.1289,1.1298,1.131,1.1315,1.1308,1.1306,1.1319,1.1318,1.1326,1.1326,1.1326,1.1326,0,1.0877,1.0906,1.0945,1.0988,1.0999,1.1021,1.1057,1.1079,1.1101,1.1134,1.1143,1.1178,1.1211,1.124,1.1284,1.1297,1.1332,1.1338,1.132,1.1322,1.1333,1.1331,1.1364,1.137,1.1357,1.1357,1.1357,0,1.0889,1.0911,1.0956,1.0975,1.0996,1.1026,1.1047,1.1076,1.1097,1.1137,1.1154,1.1189,1.1218,1.1271,1.13,1.1334,1.134,1.1349,1.1345,1.1337,1.134,1.1338,1.134,1.135,1.135,1.135,1.135,0,1.0907,1.092,1.095,1.0986,1.1011,1.104,1.1069,1.1083,1.1117,1.1139,1.1174,1.1197,1.1242,1.1276,1.1313,1.1334,1.1347,1.1351,1.1355,1.1348,1.1336,1.1342,1.132,1.135,1.135,1.135,1.135,1.135,1.0916,1.0936,1.097,1.1003,1.1028,1.1055,1.1077,1.1102,1.1131,1.117,1.1185,1.122,1.1253,1.1303,1.1325,1.1352,1.1354,1.1361,1.1362,1.1363,1.1362,1.1332,1.1359,1.1359,1.1359,1.1359,1.1359,0,1.0934,1.0957,1.0987,1.1027,1.1053,1.1063,1.1096,1.1117,1.1148,1.1177,1.1206,1.1245,1.1278,1.1309,1.1344,1.136,1.1367,1.1368,1.1367,1.1371,1.1359,1.1351,1.1362,1.1362,1.1362,1.1362,1.1362,1.1362,1.0947,1.0981,1.0998,1.1044,1.1067,1.1102,1.112,1.1144,1.1168,1.1211,1.1238,1.1259,1.1289,1.1326,1.1356,1.1365,1.1376,1.1376,1.1385,1.1373,1.1372,1.1372,1.1365,1.1378,1.1378,1.1396,1.1396,1.1396]},{"header":{"parameterUnit":"m.s-1","parameterCategory":1,"la1":30.2991,"la2":30.254,"lo1":-89.0895,"lo2":-89.0444,"dy":0.0017,"dx":0.0017,"nx":28,"ny":28,"refTime":"2025-08-21T03:00:00:Z","depth":0,"parameterNumber":3,"parameterNumberName":"V-component_of_WINDS"},"data":[0,0,0,0,0,0,0,0,0,0,0,0,0,0,0,0,0,0,0,0,0,0,0,0,0,0,0,0,0,0,0,0,0,0,0,0,0,0,0,0,0,0,0,0,0,0,0,0,0,0,0,0,0,0,0,0,0,0,0.0468,0.0468,0,0.0477,0.0478,0.0478,0.0449,0.0448,0.0447,0.0446,0.0458,0.0459,0.046,0,0,0,0,0,0,0,0,0,0,0,0,0,0.0426,0.0427,0.0468,0.0468,0.0468,0.0477,0.0478,0.0478,0.0449,0.0448,0.0447,0.0446,0.0458,0.0459,0.046,0,0,0,0,0,0,0,0,0,0,0,0,0,0.0441,0.0427,0.0468,0.0455,0.0454,0.0477,0.0478,0.0478,0.0449,0.0448,0.0447,0.0445,0.0457,0.0459,0.046,0.0497,0,0,0.0466,0.0466,0,0,0,0,0,0,0,0,0.044,0.0442,0.0457,0.0456,0.0455,0.0461,0.0467,0.0484,0.045,0.0451,0.0446,0.0445,0.046,0.0461,0.0466,0.0498,0.0498,0.0466,0.0467,0.0467,0.0468,0,0,0,0,0,0,0,0.0439,0.0442,0.0472,0.0457,0.0456,0.0449,0.045,0.047,0.0463,0.0451,0.0449,0.045,0.0459,0.0465,0.0466,0.0499,0.0466,0.0467,0.0468,0.0469,0.056,0.0562,0,0,0,0,0,0,0.0439,0.0441,0.0471,0.0472,0.0444,0.0451,0.0452,0.046,0.0463,0.0462,0.0451,0.0449,0.0462,0.0464,0.0466,0.051,0.0467,0.0469,0.047,0.0559,0.0561,0.0562,0,0,0,0,0,0,0.0439,0.0442,0.0471,0.0456,0.0459,0.0453,0.0463,0.0461,0.0466,0.0463,0.0462,0.0458,0.0461,0.0464,0.049,0.051,0.047,0.0471,0.0557,0.056,0.0562,0.0597,0,0,0,0,0,0,0.0437,0.0442,0.0456,0.0456,0.046,0.0494,0.0464,0.0462,0.0469,0.0466,0.0469,0.0468,0.0461,0.0487,0.0491,0.0511,0.0473,0.0556,0.0558,0.0561,0.0594,0.06,0.0605,0,0,0,0,0,0.0436,0.0466,0.0457,0.0461,0.0477,0.0495,0.0497,0.0487,0.0471,0.0485,0.0483,0.0468,0.0507,0.049,0.0494,0.0515,0.0554,0.0558,0.0561,0.0591,0.0599,0.0605,0,0,0,0,0,0,0.0469,0.0466,0.0456,0.0487,0.0491,0.049,0.0508,0.0496,0.0505,0.0502,0.049,0.0491,0.0518,0.0519,0.0501,0.0551,0.0528,0.0532,0.055,0.0556,0.0562,0.0562,0.0474,0,0,0,0,0,0.048,0.0495,0.0491,0.0519,0.0522,0.0514,0.0522,0.0514,0.0518,0.052,0.052,0.0525,0.0538,0.0547,0.0559,0.0593,0.0594,0.061,0.0615,0.062,0.0624,0.0642,0.0649,0.0573,0.0573,0.0573,0,0,0.0503,0.0503,0.0513,0.0525,0.0528,0.0544,0.0516,0.0534,0.0546,0.0523,0.0547,0.0547,0.0552,0.0582,0.0595,0.0583,0.0645,0.0624,0.0628,0.0629,0.0646,0.0653,0.066,0.0575,0.0575,0.0574,0,0,0.0553,0.0554,0.0577,0.058,0.0584,0.0578,0.0584,0.0584,0.0583,0.0607,0.059,0.0603,0.0626,0.063,0.0636,0.0685,0.0672,0.0689,0.0719,0.0737,0.0743,0.0748,0.0766,0.0772,0.0693,0.0693,0.0694,0,0.0581,0.0603,0.0591,0.0609,0.0615,0.0594,0.0618,0.0621,0.0629,0.0634,0.062,0.0648,0.065,0.068,0.0692,0.0697,0.0703,0.069,0.0743,0.0748,0.0753,0.077,0.0776,0.0696,0.0695,0.0695,0.0695,0,0.0637,0.0653,0.0671,0.0679,0.0686,0.0708,0.0698,0.0708,0.0698,0.0695,0.0719,0.072,0.0732,0.0738,0.073,0.0767,0.076,0.0745,0.0721,0.0762,0.0778,0.0784,0.0699,0.0698,0.0697,0.0697,0,0,0.071,0.0709,0.0716,0.0718,0.072,0.0733,0.0752,0.0763,0.0771,0.0777,0.0793,0.0813,0.0799,0.0804,0.0796,0.0811,0.085,0.0794,0.0794,0.0805,0.0892,0.0904,0.0911,0.0841,0.0842,0.0843,0.0892,0,0.0759,0.0792,0.0781,0.0815,0.0829,0.0809,0.0826,0.0829,0.0826,0.0838,0.0834,0.0848,0.0828,0.0831,0.0845,0.0843,0.0868,0.0839,0.0857,0.0858,0.0857,0.092,0.0932,0.0978,0.0898,0.0899,0.0899,0,0.0821,0.0828,0.0863,0.0862,0.0868,0.0883,0.0892,0.0903,0.0906,0.0903,0.0909,0.0897,0.0916,0.0892,0.0918,0.0899,0.0905,0.0905,0.0906,0.0908,0.0882,0.0924,0.0992,0.0999,0.0909,0.0908,0.0907,0,0.087,0.0889,0.0912,0.0915,0.0914,0.0926,0.0926,0.0928,0.0935,0.0942,0.0946,0.0956,0.0962,0.0969,0.096,0.0943,0.0988,0.0963,0.0986,0.0986,0.0997,0.0997,0.1068,0.1001,0.1,0.1,0.1,0,0.0926,0.0949,0.0934,0.0949,0.0973,0.096,0.0985,0.0983,0.0984,0.0998,0.0981,0.0994,0.0981,0.0993,0.0986,0.1009,0.1012,0.101,0.1008,0.1012,0.1012,0.1016,0.1013,0.1002,0.1002,0.1001,0.1001,0,0.0986,0.0977,0.1002,0.0998,0.0998,0.1016,0.1014,0.1027,0.1022,0.1039,0.1043,0.1035,0.1048,0.104,0.1053,0.1049,0.1079,0.1072,0.1078,0.1076,0.11,0.1098,0.1177,0.1187,0.1112,0.1113,0.1114,0,0.1023,0.104,0.1038,0.1046,0.1047,0.106,0.1066,0.1053,0.1061,0.1065,0.1078,0.109,0.1098,0.1121,0.1116,0.1127,0.1121,0.1147,0.1122,0.1125,0.1121,0.1121,0.1122,0.1153,0.1154,0.1155,0.1155,0,0.109,0.1084,0.1094,0.1102,0.111,0.1116,0.1121,0.1128,0.1115,0.1124,0.1137,0.1144,0.1158,0.117,0.1178,0.1178,0.1165,0.1163,0.1169,0.1173,0.1176,0.1175,0.1092,0.1161,0.1161,0.116,0.116,0.116,0.1139,0.1153,0.1154,0.1165,0.1167,0.1171,0.1184,0.1179,0.119,0.1199,0.1191,0.1207,0.1209,0.1218,0.122,0.1232,0.1222,0.123,0.1232,0.1235,0.1238,0.1173,0.1234,0.1234,0.1233,0.1233,0.1233,0,0.1205,0.1204,0.1215,0.1221,0.123,0.1215,0.122,0.1228,0.1242,0.1244,0.1253,0.1268,0.1279,0.1275,0.1285,0.1295,0.129,0.1299,0.1298,0.1298,0.1247,0.1241,0.1303,0.1303,0.1303,0.1303,0.1303,0.1303,0.1241,0.1263,0.1257,0.128,0.1279,0.1294,0.1297,0.1301,0.1303,0.132,0.1329,0.1326,0.1326,0.1336,0.1345,0.1344,0.1349,0.136,0.1356,0.1309,0.1302,0.1296,0.129,0.1361,0.1361,0.1407,0.1407,0.1407]}]]